CDT,Max TemperatureF,Mean TemperatureF,Min TemperatureF,Max Dew PointF,MeanDew PointF,Min DewpointF,Max Humidity, Mean Humidity, Min Humidity, Max Sea Level PressureIn, Mean Sea Level PressureIn, Min Sea Level PressureIn, Max VisibilityMiles, Mean VisibilityMiles, Min VisibilityMiles, Max Wind SpeedMPH, Mean Wind SpeedMPH, Max Gust SpeedMPH,PrecipitationIn, CloudCover, Events, WindDirDegrees
2011-10-1,80,63,45,48,42,34,86,53,19,30.27,30.21,30.15,10,8,0,10,2,13,0.00,0,,71
2011-10-2,79,64,49,47,43,35,83,53,22,30.30,30.22,30.16,10,10,10,9,4,12,0.00,0,,56
2011-10-3,84,67,49,49,44,36,86,53,20,30.28,30.21,30.15,10,10,10,9,3,14,0.00,0,,57
2011-10-4,86,70,53,48,42,30,77,46,15,30.28,30.20,30.13,10,10,10,12,4,15,0.00,0,,68
2011-10-5,85,69,53,48,44,35,77,48,18,30.22,30.13,30.05,10,10,10,13,5,16,0.00,0,,86
2011-10-6,87,73,59,51,48,45,69,46,22,30.12,30.06,30.00,10,10,10,17,8,25,0.00,0,,98
2011-10-7,88,76,63,57,52,46,67,46,24,30.18,30.09,30.04,10,10,10,21,8,26,0.00,0,,103
2011-10-8,88,75,62,58,55,51,84,57,29,30.16,30.09,30.02,10,10,10,20,8,26,0.00,0,,107
2011-10-9,85,74,63,57,54,50,73,52,31,30.13,30.06,29.98,10,10,10,22,10,30,0.00,0,,96
2011-10-10,75,69,63,65,62,53,93,75,57,30.09,30.03,29.97,10,8,2,10,5,14,0.68,7,Rain,58
2011-10-11,82,74,65,66,63,61,87,69,51,29.96,29.89,29.81,10,9,2,15,5,17,0.12,5,Rain-Thunderstorm,68
2011-10-12,80,72,64,63,61,54,93,71,48,29.81,29.76,29.68,10,9,5,16,6,21,0.05,3,Rain,93
2011-10-13,79,68,57,53,47,38,72,48,24,29.90,29.85,29.76,10,10,10,20,9,31,0.00,0,,299
2011-10-14,85,67,49,52,45,34,89,54,18,30.01,29.94,29.89,10,10,10,9,2,12,0.00,0,,340
2011-10-15,84,69,53,51,45,34,80,50,20,30.15,30.05,29.99,10,10,10,13,5,16,0.00,0,,78
2011-10-16,92,72,52,55,49,47,77,50,23,30.04,29.96,29.87,10,10,10,23,5,30,0.00,0,,191
2011-10-17,90,74,57,65,55,49,86,55,24,29.92,29.77,29.64,10,9,2,24,6,31,0.26,2,Rain-Thunderstorm,145
2011-10-18,65,58,50,61,43,30,83,57,31,30.00,29.88,29.71,10,9,5,28,13,32,0.09,6,Rain-Thunderstorm,338
2011-10-19,60,50,39,34,26,17,73,47,21,30.04,30.00,29.97,10,10,10,23,10,32,0.00,0,,303
2011-10-20,65,50,34,37,29,23,76,49,22,30.14,30.09,30.04,10,10,10,17,6,23,0.00,0,,277
2011-10-21,75,57,39,45,39,35,92,59,25,30.24,30.16,30.10,10,10,10,9,5,12,0.00,0,,58
2011-10-22,80,64,47,61,50,42,93,63,32,30.14,30.06,29.91,10,8,1,29,7,36,1.24,3,Rain-Thunderstorm,43
2011-10-23,75,66,56,61,56,53,97,73,49,30.11,30.02,29.94,10,10,6,17,2,24,0.02,3,Rain-Thunderstorm,21
2011-10-24,80,67,54,59,55,52,100,74,48,30.23,30.15,30.10,10,4,0,9,3,12,0.00,0,Fog,62
2011-10-25,85,70,54,60,56,53,93,65,37,30.13,30.00,29.88,10,10,9,23,8,31,0.00,0,,164
2011-10-26,81,69,57,61,58,50,90,72,54,29.92,29.87,29.83,10,10,4,18,7,23,T,4,Rain,323
2011-10-27,57,53,49,49,47,44,89,76,62,30.15,30.05,29.93,10,7,2,20,9,24,1.25,8,Rain-Thunderstorm,13
2011-10-28,63,52,41,44,39,31,89,61,32,30.26,30.21,30.13,10,10,8,16,4,20,0.01,3,Rain,330
2011-10-29,68,53,37,40,36,30,92,59,26,30.29,30.20,30.09,10,10,5,14,2,24,0.00,0,,249
2011-10-30,71,56,41,43,39,34,89,59,28,30.19,30.13,30.08,10,10,10,17,5,23,0.00,0,,251
2011-10-31,75,57,38,46,41,36,89,58,27,30.22,30.16,30.09,10,10,8,13,3,16,0.00,0,,235